Ana Sayfa
METAR-TAF:

METAR-TAF

Havaalanları :

Nueces County Airport

Robstown, Teksas, Amerika Birleşik Devletleri

Enlem: 27-46-42N, Boylam: 097-41-25W, yükseklik: 24 m

Güncel hava durumu gözlemi

Rapor saat 18:35 UTC de 15 dakika önce yapıldı.
Rüzgar güney/güneydoğudan 5 kt
Sıcaklık 33°C
Nem 63%
Basınç 1011 hPa
Görüş mesafesi: 16.1 km
Açık gökyüzü

METAR: KRBO 191835Z AUTO 16005KT 10SM CLR 33/25 A2984 RMK AO2 T03330246

Saat: 13:50 (18:50 UTC)


TAF: eksik

4.000'den fazla havaalanı için hava durumu gözlemleri ve tahminleri (METAR ve TAF raporları).

Kullanılabilir istasyonlar harita üzerinde sarı ve kırmızı noktalarla gösterilir.

İstasyonun adını görmek için fareyi noktanın üzerinde gezdirin.

Sonrasında hava gözlem ve tahminlerini görmek için tıklayın.

Haritayı değiştirmek için: yaklaştırmak için siyah artı işaretli yeşil düğmeye ve uzaklaştırmak için de eksi işaretli düğmeye hızla tıklayın; bitişik haritalar için yeşil okları kullanın.


METAR-TAF: